Weather History for KSGT - December, 2012

Change the Weather History Date:

Thursday, December 20, 2012

  Actual Average Record
Temperature  
Mean Temperature 50 °F -  
Max Temperature 66 °F 46 °F 69 °F (2013)
Min Temperature 35 °F 32 °F 19 °F (1996)
Degree Days  
Heating Degree Days 14    
Moisture  
Dew Point 32 °F    
Average Humidity 56    
Maximum Humidity 83    
Minimum Humidity 42    
Precipitation  
Precipitation 0.02 in - - ()
Sea Level Pressure  
Sea Level Pressure 29.93 in    
Wind  
Wind Speed 23 mph (West)    
Max Wind Speed 37 mph    
Max Gust Speed 50 mph    
Visibility 10 miles    
Events      
Averages and records for this station are not official NWS values.
T = Trace of Precipitation, MM = Missing Value Source: NWS Daily Summary

Daily Weather History Graph

Daily Weather History Graph

Search for Another Location

Airport or City:

Trip Planner

Search our weather history database for the weather conditions in past years. The results will help you decide how hot, cold, wet, or windy it might be!

Date:

Astronomy

Dec. 20, 2012 Rise Set
Actual Time 7:09 AM CST 4:59 PM CST
Civil Twilight 6:41 AM CST 5:27 PM CST
Nautical Twilight 6:09 AM CST 5:58 PM CST
Astronomical Twilight 5:38 AM CST 6:29 PM CST
Moon 12:05 PM CST (12/20) 12:09 AM CST (12/20)
Length of Visible Light 10h 46m
Length of Day
9h 50m
First Quarter, 55% of the Moon is Illuminated
Dec 20
First Quarter
Dec 28
Full
Jan 4
Last Quarter
Jan 11
New
Jan 18
First Quarter

Hourly Weather History & Observations

Time (CST) Temp. Windchill Dew Point Humidity Pressure Visibility Wind Dir Wind Speed Gust Speed Precip Events Conditions
12:15 AM 66.2 °F - 57.2 °F 73% 29.60 in 10.0 mi SSE 21.9 mph 31.1 mph N/A   Overcast
12:35 AM 66.2 °F - 57.2 °F 73% 29.59 in 10.0 mi SSE 23.0 mph 26.5 mph N/A   Overcast
12:56 AM 66.2 °F - 57.2 °F 73% 29.57 in 10.0 mi SSE 21.9 mph 28.8 mph N/A   Overcast
1:35 AM 66.2 °F - 60.8 °F 83% 29.55 in 10.0 mi South 23.0 mph 28.8 mph N/A   Overcast
1:56 AM 66.2 °F - 60.8 °F 83% 29.54 in 10.0 mi South 24.2 mph 29.9 mph N/A   Overcast
2:15 AM 66.2 °F - 60.8 °F 83% 29.55 in 10.0 mi South 18.4 mph - N/A   Overcast
2:35 AM 59.0 °F - 51.8 °F 77% 29.60 in 4.0 mi WSW 17.3 mph 35.7 mph N/A   Overcast
2:55 AM 57.2 °F - 51.8 °F 82% 29.60 in 10.0 mi WSW 15.0 mph - N/A   Mostly Cloudy
3:15 AM 57.2 °F - 51.8 °F 82% 29.61 in 9.0 mi WSW 13.8 mph - N/A   Overcast
3:35 AM 57.2 °F - 51.8 °F 82% 29.61 in 9.0 mi SW 13.8 mph - N/A   Overcast
3:55 AM 57.2 °F - 51.8 °F 82% 29.59 in 10.0 mi SW 15.0 mph - 0.02 in   Overcast
4:15 AM 57.2 °F - 51.8 °F 82% 29.61 in 10.0 mi SW 19.6 mph 27.6 mph N/A   Overcast
4:55 AM 57.2 °F - 46.4 °F 67% 29.61 in 10.0 mi WSW 25.3 mph 36.8 mph N/A   Mostly Cloudy
5:15 AM 55.4 °F - 42.8 °F 63% 29.63 in 10.0 mi WSW 28.8 mph 39.1 mph N/A   Scattered Clouds
5:35 AM 53.6 °F - 39.2 °F 58% 29.65 in 10.0 mi WSW 24.2 mph 33.4 mph N/A   Partly Cloudy
5:56 AM 53.6 °F - 37.4 °F 54% 29.66 in 10.0 mi WSW 21.9 mph 31.1 mph N/A   Clear
6:15 AM 51.8 °F - 37.4 °F 58% 29.68 in 10.0 mi West 27.6 mph 36.8 mph N/A   Clear
6:55 AM 46.4 °F 37.2 °F 33.8 °F 62% 29.72 in 10.0 mi West 29.9 mph 41.4 mph N/A   Partly Cloudy
7:15 AM 46.4 °F 37.2 °F 33.8 °F 62% 29.75 in 10.0 mi West 29.9 mph 42.6 mph N/A   Mostly Cloudy
7:35 AM 46.4 °F - 33.8 °F 62% 29.76 in 10.0 mi North - - N/A   Overcast
7:55 AM 46.4 °F - 32.0 °F 57% 29.79 in 10.0 mi North - - N/A   Overcast
8:35 AM 44.6 °F - 28.4 °F 53% 29.83 in 10.0 mi North - - N/A   Overcast
8:55 AM 44.6 °F - 28.4 °F 53% 29.85 in 10.0 mi North - - N/A   Overcast
9:16 AM 42.8 °F - 28.4 °F 57% 29.86 in 10.0 mi North - - N/A   Overcast
9:35 AM 44.6 °F - 28.4 °F 53% 29.87 in 10.0 mi North - - N/A   Overcast
9:55 AM 44.6 °F - 28.4 °F 53% 29.90 in 10.0 mi North - - N/A   Overcast
10:35 AM 44.6 °F 33.8 °F 26.6 °F 49% 29.93 in 10.0 mi West 36.8 mph 48.3 mph N/A   Scattered Clouds
10:55 AM 44.6 °F 34.9 °F 28.4 °F 53% 29.93 in 10.0 mi West 28.8 mph 44.9 mph N/A   Scattered Clouds
11:15 AM 46.4 °F 36.9 °F 28.4 °F 50% 29.93 in 10.0 mi West 32.2 mph 49.5 mph N/A   Scattered Clouds
11:35 AM 46.4 °F - 28.4 °F 50% 29.94 in 10.0 mi North - - N/A   Partly Cloudy
11:55 AM 46.4 °F 36.7 °F 28.4 °F 50% 29.95 in 10.0 mi West 33.4 mph 41.4 mph N/A   Scattered Clouds
12:15 PM 46.4 °F 37.0 °F 28.4 °F 50% 29.95 in 10.0 mi WNW 31.1 mph 39.1 mph N/A   Mostly Cloudy
12:35 PM 46.4 °F 36.9 °F 28.4 °F 50% 29.95 in 10.0 mi WNW 32.2 mph 41.4 mph N/A   Mostly Cloudy
12:55 PM 46.4 °F 37.0 °F 28.4 °F 50% 29.96 in 10.0 mi WNW 31.1 mph 39.1 mph N/A   Scattered Clouds
1:15 PM 48.2 °F - 28.4 °F 46% 29.96 in 10.0 mi WNW 31.1 mph 42.6 mph N/A   Scattered Clouds
1:35 PM 48.2 °F - 30.2 °F 50% 29.98 in 10.0 mi West 27.6 mph 41.4 mph N/A   Partly Cloudy
1:55 PM 48.2 °F - 28.4 °F 46% 29.98 in 10.0 mi WNW 36.8 mph 42.6 mph N/A   Clear
2:15 PM 46.4 °F 36.9 °F 28.4 °F 50% 29.99 in 10.0 mi West 32.2 mph 42.6 mph N/A   Scattered Clouds
2:35 PM 46.4 °F 37.4 °F 28.4 °F 50% 30.01 in 10.0 mi West 28.8 mph 35.7 mph N/A   Scattered Clouds
3:15 PM 46.4 °F 37.4 °F 26.6 °F 46% 30.05 in 10.0 mi West 28.8 mph 40.3 mph N/A   Partly Cloudy
3:35 PM 46.4 °F 37.0 °F 26.6 °F 46% 30.05 in 10.0 mi West 31.1 mph 41.4 mph N/A   Clear
3:55 PM 46.4 °F 37.9 °F 26.6 °F 46% 30.07 in 10.0 mi West 25.3 mph 34.5 mph N/A   Clear
4:15 PM 44.6 °F 35.7 °F 24.8 °F 46% 30.08 in 10.0 mi West 24.2 mph 33.4 mph N/A   Clear
4:35 PM 44.6 °F 35.1 °F 23.0 °F 43% 30.09 in 10.0 mi West 27.6 mph 34.5 mph N/A   Clear
5:15 PM 44.6 °F 36.1 °F 23.0 °F 43% 30.11 in 10.0 mi West 21.9 mph 31.1 mph N/A   Clear
5:35 PM 42.8 °F 33.8 °F 23.0 °F 46% 30.12 in 10.0 mi West 21.9 mph 32.2 mph N/A   Clear
5:55 PM 42.8 °F 34.3 °F 21.2 °F 42% 30.13 in 10.0 mi West 19.6 mph 29.9 mph N/A   Clear
6:15 PM 42.8 °F 33.8 °F 21.2 °F 42% 30.14 in 10.0 mi West 21.9 mph 29.9 mph N/A   Clear
6:55 PM 42.8 °F 34.5 °F 21.2 °F 42% 30.17 in 10.0 mi West 18.4 mph 21.9 mph N/A   Clear
7:15 PM 42.8 °F 34.0 °F 21.2 °F 42% 30.17 in 10.0 mi West 20.7 mph 26.5 mph N/A   Clear
7:35 PM 42.8 °F 34.3 °F 21.2 °F 42% 30.18 in 10.0 mi WNW 19.6 mph 25.3 mph N/A   Clear
7:55 PM 41.0 °F 33.1 °F 21.2 °F 45% 30.19 in 10.0 mi WNW 15.0 mph 23.0 mph N/A   Clear
8:15 PM 41.0 °F 32.5 °F 21.2 °F 45% 30.20 in 10.0 mi WNW 17.3 mph 23.0 mph N/A   Clear
8:35 PM 39.2 °F 29.8 °F 21.2 °F 49% 30.21 in 10.0 mi WNW 18.4 mph 23.0 mph N/A   Clear
8:55 PM 39.2 °F 30.5 °F 19.4 °F 45% 30.22 in 10.0 mi WNW 16.1 mph - N/A   Clear
9:15 PM 39.2 °F 30.5 °F 21.2 °F 49% 30.22 in 10.0 mi WNW 16.1 mph - N/A   Clear
9:35 PM 39.2 °F 30.8 °F 21.2 °F 49% 30.23 in 10.0 mi WNW 15.0 mph 20.7 mph N/A   Clear
9:55 PM 39.2 °F 31.2 °F 21.2 °F 49% 30.23 in 10.0 mi WNW 13.8 mph - N/A   Clear
10:15 PM 39.2 °F 29.3 °F 19.4 °F 45% 30.24 in 10.0 mi WNW 20.7 mph 26.5 mph N/A   Clear
10:35 PM 37.4 °F 29.3 °F 19.4 °F 48% 30.25 in 10.0 mi WNW 12.7 mph 19.6 mph N/A   Clear
10:55 PM 35.6 °F 27.5 °F 21.2 °F 56% 30.25 in 10.0 mi West 11.5 mph - N/A   Clear
11:15 PM 37.4 °F 29.3 °F 21.2 °F 52% 30.25 in 10.0 mi WNW 12.7 mph - N/A   Clear
11:35 PM 35.6 °F 26.6 °F 21.2 °F 56% 30.25 in 10.0 mi West 13.8 mph - N/A   Clear
11:55 PM 35.6 °F 27.1 °F 21.2 °F 56% 30.26 in 10.0 mi West 12.7 mph - N/A   Clear